Theta_e
309 311 313 311 313 317 318 319 313 314 313 306 308 310 311 314 315 316 317 322 332 337 332 331 329 330 339 336 335 338 339 339 339 337 335 346 348 346 347 346 347 347 347 349 349 346 344 342 339 337 334 331 328 328 327 328 327 327 327 326 326 327 330 332 333 333 333 335 338 341 340 339 338 337 337 337 337 336 336 334 332 332 333 335 337 339 340 340 340 339 338 338 338 338 338 338 338
313 312 311 311 316 318 318 317 311 310 310 305 309 311 313 316 314 316 318 320 332 339 337 334 332 336 340 340 339 338 342 345 346 344 344 347 346 347 347 347 347 347 348 349 349 347 345 343 339 338 334 332 329 328 327 327 328 328 327 327 327 328 329 330 332 334 336 338 339 339 337 336 335 336 337 337 338 338 337 335 334 332 329 328 331 336 339 339 339 338 337 338 338 337 338 338 337
312 311 312 315 317 318 318 316 310 307 307 305 308 314 316 315 317 324 326 326 336 339 340 339 337 339 339 340 340 338 343 344 345 344 344 347 347 346 346 346 347 347 348 349 350 348 345 343 340 338 335 333 330 328 326 327 329 328 328 328 328 329 331 333 334 337 337 338 337 336 334 333 334 335 336 336 337 338 336 335 334 330 327 329 334 336 338 339 337 337 337 338 337 337 337 337 337
310 312 315 317 317 316 317 315 311 307 306 305 307 319 323 321 327 330 331 335 338 339 341 342 340 339 340 343 341 340 345 344 345 345 345 347 347 345 345 346 346 347 347 348 349 347 346 343 340 338 335 334 331 329 327 327 330 330 329 328 327 327 331 334 335 336 335 335 335 334 332 331 332 333 334 334 335 337 337 337 335 332 328 331 337 338 338 338 337 337 337 338 337 336 337 337 337
311 314 315 317 318 315 316 316 314 309 307 308 308 322 329 328 332 331 334 338 337 338 340 342 341 339 342 345 343 344 345 344 346 346 346 347 346 345 344 345 345 346 346 347 348 348 346 344 341 338 336 334 332 330 327 328 329 330 329 328 327 326 329 331 333 333 332 331 331 331 330 329 331 331 332 333 335 337 338 339 338 336 334 332 335 338 337 337 337 337 337 337 337 337 337 336 336
313 316 316 318 319 316 315 312 310 309 312 313 312 324 331 331 334 333 336 335 335 337 338 341 341 341 344 346 343 345 346 345 345 346 348 347 346 345 344 343 344 345 345 345 346 347 346 344 342 340 338 335 332 331 328 327 329 329 329 329 328 327 327 328 330 330 329 329 328 329 328 328 329 330 331 332 334 336 337 338 338 337 336 334 334 336 337 337 337 337 337 338 337 337 336 336 335
315 316 316 316 316 316 314 310 309 311 314 315 316 324 330 332 333 333 334 333 335 336 337 340 341 343 346 345 344 345 346 347 346 347 348 347 346 344 343 342 343 344 345 344 344 346 346 344 342 341 340 337 334 331 329 328 328 329 329 329 329 328 327 328 329 329 329 329 329 329 330 330 330 330 331 332 334 335 336 337 338 337 335 334 333 337 337 337 337 337 338 337 336 335 335 334 334
316 317 317 315 316 314 313 312 312 314 314 315 319 323 324 326 325 328 333 332 335 336 338 340 340 343 345 344 345 347 347 348 348 348 348 347 346 344 342 341 342 342 343 344 343 345 344 343 343 341 340 339 337 333 331 330 329 328 329 329 329 329 329 330 330 330 331 331 331 331 332 333 333 334 334 334 335 335 336 337 337 336 334 334 334 336 336 336 337 337 337 337 335 333 332 332 333
316 317 316 314 315 314 311 311 314 316 316 315 318 321 320 321 319 323 329 331 334 335 338 338 338 340 343 344 345 346 348 349 349 349 348 347 345 342 341 341 342 343 343 344 343 344 343 342 343 342 340 340 340 337 334 332 330 329 329 329 330 330 330 331 332 332 332 332 332 332 333 334 335 336 336 337 336 335 336 337 337 335 333 334 335 334 334 336 336 336 336 336 333 330 329 329 329
315 316 315 313 314 311 308 310 313 315 315 315 317 319 319 318 318 319 322 328 331 334 336 336 337 339 342 345 345 346 348 348 349 348 347 346 344 341 340 341 343 343 342 343 344 343 343 341 341 343 342 340 340 339 337 334 331 330 328 329 330 331 331 332 332 333 332 332 332 332 334 335 335 336 337 338 337 336 336 336 336 336 333 333 335 333 333 334 334 335 335 335 331 329 329 328 327
315 314 315 313 311 308 307 310 312 315 315 315 316 317 317 316 317 317 319 323 327 332 334 335 337 340 342 343 345 347 348 348 348 348 347 345 343 342 341 342 342 343 343 343 342 342 342 341 339 342 343 342 341 340 339 336 333 331 329 330 330 331 333 333 333 333 333 332 333 332 333 335 334 335 338 338 337 336 335 336 336 337 335 333 334 333 332 334 334 335 335 334 332 330 330 328 329
315 314 314 311 309 309 310 311 312 314 314 313 315 316 315 316 316 316 318 321 323 329 332 334 335 337 342 343 345 347 349 348 348 347 346 344 342 341 341 342 343 343 343 343 342 341 342 341 339 340 341 343 342 341 340 339 336 334 333 331 331 332 334 334 333 333 333 333 334 333 334 335 334 334 337 338 338 337 335 335 335 337 336 333 333 333 334 335 335 335 335 334 333 332 330 330 329
315 315 313 311 312 312 312 311 312 313 313 315 315 315 315 315 316 316 317 318 322 327 329 333 332 335 341 343 344 346 347 347 347 346 345 343 342 341 341 342 342 342 343 343 343 342 341 342 341 340 340 341 343 343 342 341 339 337 336 333 330 332 334 334 334 333 333 334 335 334 334 334 334 334 336 338 338 337 335 334 334 337 337 334 333 334 334 335 335 334 335 333 333 332 331 330 329
313 315 313 312 313 313 312 311 312 311 311 316 316 314 316 315 316 316 316 318 318 323 330 333 330 335 340 342 344 344 346 347 347 346 344 343 342 341 340 341 341 342 342 342 343 344 343 344 344 343 341 342 343 343 343 342 340 339 338 335 332 332 334 335 335 335 335 335 335 335 333 334 334 334 335 337 338 336 335 333 333 336 337 334 332 333 333 334 334 334 334 333 332 332 331 329 329
313 314 314 313 313 312 312 312 312 311 312 316 315 314 315 316 318 316 316 316 317 326 332 333 331 334 337 338 341 342 345 347 346 346 345 343 342 341 340 341 341 341 342 341 342 343 343 343 344 344 344 344 344 344 343 342 342 340 338 338 336 334 334 337 337 336 335 335 336 335 334 334 334 335 335 336 337 336 334 333 332 334 337 335 333 333 332 332 331 332 332 331 331 331 330 329 329
313 313 313 313 311 310 312 313 313 311 314 316 314 314 314 316 320 319 319 317 323 331 330 332 334 334 332 334 340 343 346 347 346 345 344 343 342 342 342 342 341 341 341 341 341 341 341 341 342 343 345 345 344 345 344 342 342 341 339 339 339 337 335 337 338 338 337 336 336 335 335 335 335 337 336 336 336 334 334 333 332 332 335 335 334 333 331 330 328 328 328 329 329 329 329 328 327
313 313 313 312 310 310 312 313 312 312 314 316 315 315 313 316 321 322 321 319 326 329 328 334 333 333 335 337 342 344 346 347 346 344 344 343 343 342 342 342 342 341 340 340 340 340 339 339 339 340 341 342 343 343 342 342 342 341 341 339 340 338 336 337 338 338 338 337 337 336 336 337 338 338 337 336 335 334 333 332 332 331 332 334 335 333 332 331 329 328 327 326 326 326 326 324 324
312 313 312 311 311 312 313 313 313 314 315 315 315 315 314 315 321 324 323 320 325 329 332 337 333 335 340 343 344 344 346 346 346 345 344 344 343 343 343 342 342 341 340 339 338 338 337 338 338 338 338 340 343 342 342 342 341 341 341 340 340 339 337 338 339 338 338 337 336 336 336 339 340 337 337 337 336 336 334 332 331 330 330 331 333 331 331 333 332 331 328 326 326 325 324 325 324
311 313 312 311 313 313 313 314 313 314 315 314 315 315 314 315 320 325 325 322 327 331 333 336 335 337 341 343 344 344 346 347 346 345 344 344 343 343 343 342 341 341 339 338 336 336 337 336 337 337 337 339 341 342 343 342 341 341 340 340 340 340 339 339 338 337 338 338 335 335 336 338 339 337 337 338 336 336 334 331 331 331 330 329 330 329 328 331 332 333 331 328 328 326 326 328 328
312 313 311 312 313 313 313 313 313 314 314 314 314 314 314 319 322 324 325 326 329 331 332 335 337 338 340 342 343 345 346 346 345 345 345 343 343 343 343 342 341 340 339 336 336 336 336 337 336 336 337 337 338 339 341 342 342 341 339 340 341 341 340 339 339 338 338 338 336 336 338 339 338 338 337 335 334 335 333 331 331 332 331 330 329 329 328 328 330 332 331 329 329 328 329 329 329
312 311 312 313 313 313 312 313 314 313 314 313 314 313 315 318 321 324 327 328 328 328 331 334 337 339 340 340 341 344 346 346 345 345 344 343 342 342 342 342 341 340 338 337 336 336 337 337 336 336 336 336 337 337 338 340 342 341 339 340 340 340 340 340 340 339 338 338 339 338 339 339 337 337 337 335 335 335 335 334 334 333 334 332 330 330 330 328 329 331 331 330 330 330 330 330 329
311 311 311 313 312 312 312 314 313 313 313 313 314 314 313 316 319 324 327 327 326 327 332 334 335 338 341 341 341 343 343 343 344 343 343 342 342 342 342 342 341 340 339 338 337 337 337 337 335 335 335 336 336 336 336 337 339 340 340 340 339 339 340 339 339 338 339 339 339 339 338 338 337 337 337 336 336 336 336 335 334 334 335 335 332 332 330 329 329 331 331 331 330 330 330 330 329
311 311 312 312 312 312 312 312 313 312 312 313 314 313 313 314 318 324 327 327 324 327 332 334 336 339 340 342 341 341 340 340 342 342 341 342 342 341 341 341 341 340 339 339 338 337 337 336 336 334 334 335 336 335 335 336 336 336 338 340 339 338 339 338 338 338 338 338 338 338 338 338 337 337 337 336 336 336 336 335 335 334 335 335 335 333 330 329 328 329 330 330 330 330 330 329 329
310 311 312 312 311 312 312 312 313 312 313 313 313 313 313 314 318 323 326 326 323 325 330 335 339 340 341 341 340 339 339 339 341 341 340 341 341 341 341 341 341 339 338 338 339 338 336 335 335 334 334 336 336 335 335 336 335 335 336 337 337 338 338 338 338 338 338 338 338 338 338 338 338 337 337 337 337 337 336 335 335 334 334 334 335 334 330 328 328 328 329 329 329 329 328 328 328
310 310 311 311 312 312 313 313 313 312 313 313 313 313 314 314 316 321 326 326 323 325 331 335 338 338 340 340 339 340 339 340 340 341 340 340 341 341 340 340 340 340 339 339 339 336 334 334 334 334 334 335 335 334 334 335 335 335 335 335 336 336 337 337 338 338 338 338 338 338 338 338 338 337 337 337 336 337 336 336 336 335 334 335 335 333 330 330 329 328 328 328 328 328 327 327 327
310 310 311 312 312 313 313 313 312 313 312 312 313 313 314 314 316 320 325 325 325 327 331 336 338 338 340 339 340 340 339 340 340 340 341 340 340 340 339 339 339 340 340 340 339 335 333 333 332 332 333 333 333 333 333 333 334 334 335 336 337 336 336 336 336 337 337 337 338 338 338 338 337 337 337 336 336 337 336 335 336 336 336 336 334 331 330 330 329 328 328 326 325 326 325 326 327
312 312 311 312 313 313 313 312 313 313 313 313 314 314 314 314 315 319 322 325 327 329 332 335 337 338 339 338 339 340 339 339 339 340 340 339 339 339 339 340 340 340 339 339 337 335 334 332 331 330 333 334 332 331 332 332 333 332 333 335 337 337 336 336 336 337 336 336 336 337 337 337 336 336 337 336 337 336 334 334 336 336 336 336 335 331 329 330 329 328 327 325 323 323 325 326 326
312 312 312 313 312 313 312 312 312 313 313 313 314 315 315 314 315 318 321 324 328 329 333 335 336 338 339 338 339 339 339 339 338 338 339 338 339 339 340 341 340 338 338 338 335 335 335 332 330 330 333 334 331 330 331 332 332 332 333 334 335 336 336 336 337 336 336 336 335 337 337 336 336 336 336 336 337 335 333 334 335 335 334 334 335 331 328 329 330 328 326 326 324 323 325 326 327
312 312 312 313 312 312 313 313 313 313 313 312 314 313 314 315 315 317 321 323 327 329 332 335 336 339 339 339 338 338 338 339 339 338 339 339 339 340 341 340 338 337 335 337 337 336 336 334 333 332 333 333 331 330 330 330 331 332 332 332 333 334 334 335 336 335 335 335 334 336 336 335 336 335 335 335 336 335 333 334 335 335 334 333 334 332 329 329 330 326 324 325 325 325 326 327 327
312 312 312 313 312 312 313 313 313 314 312 311 313 311 312 315 314 318 322 322 326 328 331 333 335 338 339 339 338 338 338 339 341 340 340 339 339 340 339 338 338 335 333 337 338 336 336 337 337 336 334 334 332 331 331 330 330 331 330 331 331 332 332 332 335 336 335 334 334 334 334 335 335 334 334 335 335 334 334 334 334 334 334 334 334 331 330 330 329 327 324 324 326 326 327 327 328
313 312 312 312 310 310 315 314 314 314 312 312 314 309 312 315 314 319 321 322 326 327 328 331 335 338 338 340 339 339 339 340 340 338 339 338 338 338 337 338 339 336 334 336 337 336 336 337 337 336 333 333 333 332 332 331 330 330 328 329 330 330 330 329 331 334 335 334 334 334 333 334 334 333 333 333 334 335 333 334 334 334 334 334 334 331 330 329 329 330 328 326 327 327 328 329 329
313 311 310 311 310 310 315 314 315 315 313 314 313 310 313 315 313 317 320 321 325 326 326 329 333 336 337 339 339 338 338 339 337 336 337 337 336 336 337 338 338 338 337 337 336 336 336 336 336 335 333 333 333 333 332 331 330 329 328 328 328 328 328 328 329 330 331 332 333 333 332 333 333 332 333 333 334 334 334 333 334 334 334 334 334 332 331 331 329 330 330 328 327 327 328 329 330
313 311 309 310 309 311 313 314 316 315 314 315 313 311 314 315 313 316 319 322 324 324 325 330 333 334 336 336 336 337 336 336 334 334 335 335 334 335 336 336 336 337 338 337 336 336 336 335 335 335 334 334 334 333 332 330 329 329 328 327 326 326 327 327 327 327 328 329 330 331 331 331 332 332 332 333 333 334 334 333 333 332 333 333 334 333 333 333 331 331 332 330 329 329 329 329 331
311 312 311 311 310 311 311 314 316 315 315 315 314 314 314 315 314 315 318 320 322 323 323 328 332 333 335 334 334 335 335 334 333 332 334 333 332 332 334 335 336 337 337 336 336 336 336 336 336 336 335 334 333 332 330 328 328 327 327 326 325 326 326 327 326 326 327 327 328 329 329 329 331 331 332 333 333 333 333 333 333 332 332 333 333 333 332 333 332 332 334 333 332 333 332 331 332
311 311 311 311 311 311 311 313 316 316 315 315 315 315 315 315 314 314 317 319 321 323 324 327 330 332 333 333 333 333 334 334 333 332 332 331 331 331 332 333 334 335 334 335 335 335 335 335 336 335 334 334 331 329 328 327 326 325 325 325 325 325 325 326 326 325 326 326 327 327 328 328 328 329 330 331 331 332 333 332 332 332 332 332 332 333 333 332 332 331 332 333 333 334 332 332 331
312 312 312 310 310 311 313 315 316 316 315 314 315 315 315 315 315 315 316 319 322 323 325 328 329 329 331 332 331 332 332 334 334 333 331 331 330 329 329 330 332 333 332 333 333 334 335 334 334 333 332 331 329 327 326 325 324 323 323 323 323 324 325 325 325 325 325 325 325 326 326 326 326 326 327 328 329 330 331 331 332 332 332 332 332 333 333 333 332 331 331 332 333 333 332 332 331
314 313 312 311 310 311 314 316 315 317 315 315 316 316 316 317 316 316 315 318 321 322 325 326 326 326 327 329 331 332 333 333 332 332 330 330 330 329 328 328 330 331 331 331 332 333 333 332 333 332 331 329 327 326 324 323 322 321 322 322 322 323 324 324 324 324 324 323 323 323 324 324 324 324 324 325 325 326 328 328 329 329 330 331 332 333 332 333 333 332 331 332 332 332 332 333 331
315 313 311 311 311 311 315 317 315 317 316 315 316 315 315 317 317 317 316 316 318 321 324 325 325 324 324 326 329 330 332 332 330 329 329 329 329 329 328 328 329 330 330 330 331 331 331 331 332 331 330 328 326 325 324 322 321 321 321 321 320 321 322 323 323 323 323 322 322 321 321 321 322 323 323 323 323 323 325 327 327 327 328 330 332 332 332 332 331 331 332 332 332 332 332 332 331
316 314 312 311 312 313 315 317 316 316 315 315 316 315 314 318 317 317 317 315 316 320 322 322 323 323 322 322 325 327 330 332 330 328 328 328 328 329 328 327 328 330 330 329 329 330 330 330 331 331 329 327 327 325 324 322 321 322 322 321 321 320 321 322 321 320 320 320 320 319 320 320 321 322 322 322 322 322 323 325 326 327 327 329 331 332 331 330 330 331 332 332 332 331 331 332 331
316 314 312 311 313 313 312 316 318 318 317 316 316 315 314 318 318 318 318 317 319 321 320 320 321 321 322 322 323 325 327 331 332 330 328 327 327 328 328 327 328 329 329 329 328 329 330 329 330 330 327 327 326 324 323 323 321 321 323 322 321 320 320 320 319 319 319 319 319 319 320 320 321 322 321 321 321 321 322 323 324 325 326 327 329 329 329 330 330 330 330 330 331 331 331 331 331
316 316 314 313 315 314 312 316 318 319 319 318 316 313 312 316 316 317 319 318 319 319 317 318 318 318 319 321 323 324 326 329 331 331 330 328 327 327 327 327 327 328 329 329 328 329 328 327 329 329 326 326 326 324 324 322 319 319 321 320 318 318 318 318 319 320 320 319 319 319 320 321 321 321 321 321 321 320 320 322 323 323 324 325 325 325 326 327 328 328 329 329 329 330 329 330 331
314 317 316 315 316 316 316 317 317 314 315 317 315 310 310 314 316 317 318 318 317 317 317 317 317 317 317 318 320 322 324 325 328 329 330 330 328 327 326 326 327 327 328 328 328 328 326 327 329 328 326 326 325 324 323 320 319 319 319 318 317 318 318 319 320 320 320 319 319 319 320 321 320 320 320 320 320 320 320 321 321 321 322 323 323 323 323 323 324 325 326 327 328 329 328 328 330
312 316 317 315 317 317 317 317 314 311 312 316 317 311 310 312 315 317 317 317 317 317 317 316 316 316 316 316 317 318 320 322 324 327 328 330 330 328 327 326 326 326 327 328 327 327 325 326 328 327 326 325 325 324 322 320 320 320 318 317 317 317 317 319 320 320 320 319 319 319 320 321 321 320 320 320 320 320 320 320 320 320 320 321 321 321 321 321 321 321 322 323 325 326 326 327 327
313 318 317 315 316 318 317 316 313 312 313 316 316 313 311 310 313 317 316 315 317 317 317 317 316 316 316 316 317 317 318 320 322 323 325 328 329 330 328 327 326 325 326 327 327 326 325 327 327 326 325 324 323 323 321 320 320 319 317 317 316 315 317 318 319 320 319 319 320 320 320 321 321 320 320 320 320 320 320 320 320 320 320 320 320 320 320 321 321 321 321 322 322 322 323 324 325
316 319 318 315 316 317 317 315 313 314 314 312 313 314 312 310 312 317 315 314 315 316 317 317 316 316 317 317 316 317 317 318 318 319 322 325 328 329 329 328 326 325 326 327 327 325 326 327 325 325 325 323 322 320 319 321 320 318 318 317 316 316 317 317 317 319 319 320 321 321 320 321 321 320 319 318 318 317 318 318 319 318 318 317 317 318 319 319 320 320 321 321 321 321 321 321 322
317 316 316 315 316 316 317 315 312 313 313 311 312 314 311 309 312 314 314 313 315 316 317 317 317 316 317 317 317 316 315 316 316 316 318 321 325 327 328 328 326 325 326 326 326 324 325 326 324 325 324 323 323 319 318 321 321 320 318 317 317 317 316 316 317 318 319 320 321 321 321 321 320 318 317 317 315 314 314 315 315 315 314 314 314 314 315 315 316 317 318 319 320 320 320 320 320
315 315 315 315 315 315 315 314 311 312 312 312 313 314 312 309 310 312 315 315 316 318 317 317 317 316 316 317 316 315 314 315 315 315 316 318 321 325 327 328 326 326 326 325 325 324 325 326 324 324 324 322 323 321 318 321 322 320 319 318 318 317 316 316 318 319 319 319 320 321 321 320 319 317 316 315 314 314 314 314 313 313 313 312 312 312 313 313 314 314 314 315 316 317 317 318 318
314 315 314 314 314 314 313 312 312 312 312 313 314 313 313 310 310 314 316 316 316 317 317 317 316 316 316 316 315 314 315 315 316 315 315 316 319 323 327 326 326 327 326 325 324 324 324 325 324 325 324 322 323 322 319 321 322 321 320 320 319 318 317 317 317 319 319 319 319 320 320 319 319 317 315 315 315 315 315 314 313 313 313 312 312 312 312 312 313 313 313 314 314 315 315 315 316
315 315 314 313 313 314 313 312 312 311 312 314 313 312 313 311 312 316 316 315 315 315 314 314 314 315 316 316 315 315 315 316 316 316 316 317 320 324 326 326 325 327 326 324 324 324 324 324 324 324 323 322 323 323 321 321 322 322 322 322 321 320 319 316 317 318 318 318 319 319 320 319 319 318 316 314 315 316 315 315 314 313 313 312 311 311 311 311 312 312 312 313 313 313 313 313 313
314 313 313 313 312 314 314 312 310 311 312 314 314 313 312 311 314 316 315 314 313 312 312 313 314 315 316 316 315 316 316 317 317 317 317 319 322 325 325 324 325 326 325 324 324 323 324 324 324 323 323 323 323 323 322 322 322 322 322 323 323 322 321 318 317 318 318 317 318 319 318 319 319 318 317 315 315 316 316 316 315 313 313 312 311 311 311 311 312 311 312 312 312 312 312 312 312
313 313 312 312 312 314 314 312 310 310 312 314 314 314 312 311 314 315 314 312 312 311 312 313 314 315 316 317 316 317 317 317 318 319 320 321 323 325 325 325 325 325 324 324 324 323 323 322 322 322 323 324 323 323 323 322 322 323 323 324 324 323 322 320 318 318 319 318 318 318 317 318 319 318 318 316 315 316 317 316 315 314 313 312 312 311 311 311 311 311 312 312 312 312 312 312 312
313 313 312 311 312 312 312 313 313 311 311 313 313 312 312 313 315 314 312 312 310 311 312 313 314 315 316 317 316 317 317 317 318 319 321 323 324 325 324 325 325 324 324 324 323 323 323 321 322 323 323 324 324 322 322 323 322 322 323 323 324 323 323 322 319 319 320 319 317 317 317 318 318 318 319 317 316 317 317 316 315 314 314 313 312 312 311 311 311 311 312 312 311 311 312 312 312
312 312 311 312 313 312 312 314 314 311 311 312 311 311 312 313 314 312 311 311 310 311 312 312 314 315 316 317 317 317 317 317 317 317 319 322 324 325 324 324 324 324 324 324 323 323 322 322 323 323 323 323 323 322 323 323 322 323 324 322 321 321 321 322 322 321 321 319 317 317 317 318 318 319 320 319 317 317 317 316 316 315 314 313 312 312 312 311 311 311 311 311 311 311 311 311 311
312 311 311 312 313 313 313 313 313 312 312 312 311 312 312 311 313 312 311 312 311 311 311 313 314 314 315 315 316 316 316 317 317 317 317 319 323 324 324 324 324 324 324 324 323 323 322 323 324 323 322 322 321 321 322 323 323 322 322 320 319 320 320 321 322 323 322 320 318 317 317 318 319 319 320 319 318 318 317 317 316 316 315 314 312 312 311 311 311 311 311 310 310 310 310 310 309
311 311 312 311 312 312 312 313 313 312 313 313 311 312 311 309 311 312 312 312 312 311 311 312 313 313 314 315 315 316 316 316 316 316 316 317 319 322 323 323 323 323 324 323 323 323 323 324 324 324 322 321 320 320 321 322 322 320 319 320 320 320 321 322 322 323 322 321 319 317 317 318 319 319 319 319 318 318 318 317 317 316 315 314 313 312 312 311 311 311 311 310 309 310 310 309 308
310 311 311 311 312 311 311 312 313 312 313 313 312 312 311 310 311 313 313 313 312 312 312 312 312 313 314 315 315 315 315 315 315 315 315 316 317 319 319 321 321 322 323 323 323 322 322 323 323 323 323 322 320 320 320 321 321 319 320 322 321 320 321 323 323 323 323 321 319 318 317 318 318 318 318 318 318 318 318 317 317 316 315 314 314 313 312 312 311 311 311 310 309 308 309 309 308
311 311 311 311 312 312 312 312 311 311 312 312 313 313 311 312 314 314 314 314 313 312 312 313 313 313 313 314 314 315 314 314 314 314 314 315 317 317 317 318 319 319 319 321 322 322 322 322 322 321 322 322 322 322 321 321 319 319 321 322 321 320 321 322 323 323 323 322 320 319 318 317 318 317 317 318 318 317 317 317 317 316 315 314 314 313 312 312 311 311 310 310 309 308 308 308 307
312 311 311 311 311 312 312 312 311 311 311 311 312 312 312 314 317 315 313 314 313 312 312 312 312 313 314 314 314 314 314 313 313 313 313 314 315 315 315 316 316 316 316 316 317 319 320 321 322 322 322 322 322 322 322 321 320 320 321 321 320 320 321 322 322 323 323 322 321 320 319 318 318 317 317 317 317 317 317 317 317 316 315 315 314 313 312 311 311 311 310 309 308 308 308 307 307
Wind_Speed
3 4 4 4 4 5 6 5 4 3 5 6 5 3 3 3 3 4 4 3 2 2 1 1 4 6 3 2 7 3 6 2 2 0 1 5 11 15 15 18 21 20 20 21 23 23 23 24 23 22 22 22 22 22 22 22 21 21 20 20 19 19 19 19 20 20 19 18 18 17 17 17 17 16 15 14 14 14 14 14 13 13 12 13 13 13 12 12 11 10 8 8 9 9 10 10 10
3 4 4 4 5 6 3 3 5 3 6 6 6 3 3 4 3 5 2 1 2 4 2 3 6 6 2 1 4 4 5 9 10 6 6 10 14 15 17 19 19 20 19 21 22 23 23 23 23 23 22 23 22 22 22 22 21 21 21 20 20 20 19 19 20 20 19 19 18 18 17 17 17 16 15 15 14 13 13 13 13 12 12 12 12 13 13 12 11 10 9 9 9 9 10 10 10
4 4 5 5 6 6 2 3 6 5 6 7 4 3 2 3 4 1 2 1 4 4 4 5 6 5 3 4 5 4 4 8 10 10 9 13 14 15 19 18 19 19 19 21 21 20 23 23 23 23 23 23 22 22 22 22 21 21 21 20 20 20 20 19 19 19 19 18 18 17 17 17 17 16 15 15 14 13 12 12 12 11 11 11 11 12 12 12 11 11 10 10 10 10 10 10 10
4 5 6 6 5 5 4 5 6 6 6 6 3 5 2 2 1 3 3 4 5 4 5 6 6 2 3 3 5 3 6 7 9 9 8 12 14 17 20 18 18 18 17 20 20 19 22 23 23 23 23 23 23 22 22 22 20 20 21 20 19 19 19 19 19 19 19 18 17 17 17 17 16 16 15 15 14 13 12 11 11 10 10 11 11 11 12 12 12 12 11 11 11 11 10 10 10
4 5 7 7 4 2 4 4 4 7 6 5 3 4 3 2 4 5 6 5 4 3 4 4 4 3 2 4 3 1 7 7 8 8 10 13 16 19 20 19 18 17 16 18 19 20 21 23 23 23 22 23 23 22 22 22 20 20 20 20 19 19 19 19 19 19 19 18 18 17 16 16 16 15 15 14 14 13 12 11 10 10 10 11 11 12 13 13 13 13 12 12 12 11 10 10 9
5 6 6 7 4 2 4 5 5 7 3 3 4 3 5 5 6 6 6 4 4 3 4 4 2 5 3 5 5 4 5 4 7 9 12 16 18 19 19 19 17 17 17 16 17 18 22 23 23 22 21 21 22 22 22 22 21 21 20 20 20 19 19 19 19 19 18 18 17 17 16 16 16 15 14 14 13 13 12 11 11 10 10 11 11 13 13 14 13 13 13 13 13 12 10 10 9
6 6 6 6 3 2 6 6 6 5 2 1 4 3 5 6 5 3 4 5 5 4 4 3 2 5 5 4 4 6 3 4 8 10 15 18 19 19 19 18 18 18 17 15 15 17 20 21 22 22 21 21 21 22 22 22 22 21 20 20 19 19 19 19 18 18 18 17 17 16 16 15 15 14 13 13 12 12 11 11 11 10 10 10 12 13 13 14 14 13 14 14 14 13 12 11 10
7 5 3 5 4 4 7 6 5 3 2 1 3 2 5 4 2 1 3 4 4 4 5 4 5 4 4 3 2 5 4 6 9 14 18 19 19 19 18 18 18 17 16 15 15 17 18 18 19 20 22 21 20 20 20 21 22 22 20 19 19 19 19 18 17 17 17 16 16 16 15 14 14 13 13 12 12 12 11 10 11 11 10 10 12 13 13 13 13 14 13 13 14 13 11 10 9
7 5 2 5 5 5 6 6 4 3 2 3 4 2 1 1 3 3 3 3 3 4 5 6 5 4 6 5 4 6 7 10 13 17 19 18 18 18 17 16 17 17 16 16 15 16 16 17 18 18 21 21 20 19 20 20 20 21 21 19 19 19 18 17 17 17 16 15 15 14 14 13 13 13 12 12 12 11 11 11 11 11 11 11 11 12 13 12 13 14 12 13 13 12 11 9 8
7 4 3 4 5 5 7 6 3 2 4 5 4 4 3 4 5 5 6 4 4 5 5 4 4 3 7 8 6 5 9 14 16 18 18 18 17 16 16 15 17 17 16 16 14 16 16 16 16 17 19 20 20 20 20 20 19 20 20 19 19 18 17 17 17 16 15 14 14 13 13 12 12 11 11 11 11 11 11 11 11 12 11 11 11 12 13 12 13 13 12 12 12 12 12 11 10
5 4 3 4 6 7 6 5 3 2 3 5 4 2 3 4 5 7 8 5 4 5 5 4 4 7 7 7 6 5 11 16 16 17 18 18 16 16 16 15 15 16 16 15 14 16 16 15 15 16 17 19 19 19 20 20 19 18 18 19 18 17 16 16 16 15 15 14 14 13 13 12 11 10 11 11 11 11 11 11 11 12 11 11 12 12 12 11 12 12 11 11 11 12 12 12 11
5 4 4 6 6 5 4 3 2 2 3 6 4 3 2 2 5 7 9 8 7 7 7 6 4 7 7 7 5 7 13 15 16 16 17 17 17 16 15 15 15 15 15 15 14 15 16 14 13 14 15 17 19 19 19 19 19 18 17 17 17 16 15 14 14 14 14 13 13 13 12 11 10 10 11 11 11 11 11 11 11 12 11 11 12 13 12 11 11 11 11 10 11 12 11 11 9
5 3 5 6 4 4 3 4 2 3 4 4 2 5 3 4 6 7 8 8 9 10 8 6 6 7 5 8 7 9 13 14 16 15 16 16 16 16 15 14 14 14 14 14 15 15 15 14 13 13 13 14 17 18 19 19 19 19 18 17 17 16 14 14 14 13 12 12 13 12 12 10 10 10 10 11 11 11 12 11 11 12 12 11 11 12 12 11 11 10 10 10 11 11 9 8 7
4 3 5 5 3 4 4 4 3 4 4 5 5 4 3 4 5 7 7 9 11 8 4 7 7 8 5 7 7 8 12 16 17 16 16 15 16 16 15 14 13 13 12 13 14 14 14 14 13 13 12 12 14 16 16 17 19 20 19 19 19 17 16 14 14 14 13 12 12 12 12 10 9 9 9 10 10 11 12 12 12 12 12 12 11 11 11 11 11 11 10 11 11 10 7 5 6
4 2 4 5 3 5 5 4 3 4 3 7 5 4 4 2 3 7 8 10 8 4 4 6 6 5 6 7 7 9 15 19 18 17 16 15 16 16 14 14 13 12 11 12 13 13 13 13 13 12 12 11 12 12 11 13 16 18 19 19 19 18 17 15 14 15 14 12 11 11 11 10 9 8 8 9 10 10 11 12 12 12 11 12 11 10 10 10 10 10 10 11 11 10 8 6 6
4 3 4 6 5 4 4 4 3 4 2 5 3 6 7 2 2 6 5 8 3 7 5 6 5 2 3 7 9 16 20 21 20 19 18 16 16 15 15 14 13 12 11 11 11 12 12 12 12 11 11 10 10 10 10 11 11 14 18 19 19 20 18 16 15 14 13 12 11 11 11 9 9 8 8 9 10 10 10 11 11 11 10 11 11 10 10 10 10 10 10 11 11 10 9 8 8
3 4 5 5 5 5 3 5 4 1 2 4 3 6 10 6 2 4 2 7 6 9 8 5 5 1 2 7 15 22 23 22 21 20 19 17 17 15 14 13 13 12 11 11 10 11 11 11 11 10 10 9 9 9 9 10 8 10 13 15 18 19 18 17 15 14 11 10 10 10 9 8 7 9 9 9 9 9 9 9 10 10 10 10 10 10 9 10 10 10 11 11 11 11 10 9 9
4 5 6 5 5 3 1 2 1 3 2 3 6 7 10 9 1 2 3 9 9 10 9 6 7 4 6 13 20 23 23 23 22 20 19 17 16 15 13 13 12 13 12 11 11 11 11 11 11 10 10 9 9 9 7 8 9 10 10 12 15 16 17 17 15 13 10 9 9 9 9 7 7 9 9 9 9 9 9 7 8 10 10 9 9 9 9 9 9 10 10 11 11 10 9 8 8
6 4 5 6 5 1 2 3 3 4 6 7 8 7 9 9 2 1 5 10 11 11 10 9 9 9 10 16 20 22 22 22 21 19 18 17 16 14 14 13 12 13 13 12 12 11 11 11 10 10 10 9 9 9 8 7 8 9 9 11 13 13 15 15 14 12 10 9 9 8 7 7 7 7 9 10 10 9 9 7 7 9 9 9 8 9 9 8 8 9 10 11 10 9 8 8 7
6 4 6 5 3 2 2 3 5 6 8 9 8 9 8 5 2 2 5 9 12 12 11 12 13 12 13 17 18 20 21 20 20 18 17 16 16 15 14 14 13 13 13 13 12 10 10 10 10 10 10 10 9 9 9 9 8 8 9 9 10 11 12 12 12 11 10 9 9 8 7 7 7 6 8 9 9 8 8 7 7 8 8 9 8 9 9 10 9 9 9 10 10 9 9 8 7
4 5 8 3 2 4 4 3 5 6 8 9 9 9 6 3 2 4 5 7 10 11 10 11 13 15 16 17 17 19 20 19 19 18 17 16 15 15 14 14 14 13 13 12 11 11 10 10 10 9 10 9 9 8 8 9 9 8 8 8 9 10 9 10 10 9 9 9 9 9 7 6 6 6 6 7 7 7 7 7 7 7 8 8 9 9 9 9 9 9 9 10 11 10 10 8 7
3 7 10 6 4 5 4 3 4 6 7 8 8 8 6 4 5 5 7 7 4 4 6 5 8 14 16 17 17 18 18 17 18 17 17 16 15 14 14 14 13 13 12 11 11 11 11 10 9 10 9 9 8 8 7 8 9 9 8 8 9 10 9 9 10 9 9 9 9 8 7 6 6 5 6 6 6 6 7 7 8 7 8 8 8 9 8 8 8 9 9 9 10 10 9 8 7
6 8 7 6 7 7 6 6 5 5 7 8 7 6 6 6 5 3 7 4 4 3 4 4 7 12 15 16 16 16 17 16 16 16 16 16 15 14 14 14 14 13 12 11 11 11 11 10 9 9 9 9 8 8 7 7 8 8 8 8 9 10 9 9 9 10 9 10 10 8 7 6 6 6 6 6 6 7 7 7 8 8 8 8 8 8 8 7 7 8 8 8 8 8 8 8 8
8 7 4 6 7 7 8 7 5 6 9 9 8 6 6 7 2 1 6 2 6 2 5 7 9 12 14 15 14 15 15 15 16 16 16 15 14 14 14 14 14 13 12 12 11 10 10 10 9 9 8 8 8 7 7 6 6 6 7 8 8 8 9 8 9 9 9 9 10 9 7 6 6 6 6 7 7 7 7 8 8 8 9 9 8 8 7 6 6 6 7 6 7 8 8 9 9
10 8 5 6 5 6 7 6 7 8 8 7 7 7 5 4 1 1 5 4 5 3 7 10 11 12 13 14 14 14 14 15 16 16 15 14 14 14 14 14 14 13 12 12 11 10 10 10 9 9 8 8 7 6 6 5 5 6 6 7 7 8 8 8 7 8 8 8 9 9 9 7 7 7 6 7 7 6 6 7 8 9 10 9 8 7 5 5 5 5 6 6 6 7 8 9 10
6 8 6 6 6 6 6 6 7 6 4 3 4 5 2 1 2 3 3 5 5 4 7 11 13 14 13 13 14 14 14 14 15 16 14 14 15 15 15 14 14 13 12 12 11 10 10 10 10 9 8 7 6 6 5 4 4 5 6 6 7 8 7 6 6 6 6 6 7 8 9 8 8 8 8 9 7 6 7 8 10 11 10 8 7 6 5 4 3 4 5 6 7 7 8 9 10
1 6 7 8 8 6 5 5 5 4 3 3 4 3 3 3 5 3 5 5 5 6 8 11 12 14 13 13 14 13 14 15 16 16 15 15 16 16 16 15 14 13 12 13 11 10 10 10 10 9 8 7 6 5 4 3 3 4 4 5 6 6 6 6 5 5 5 5 6 6 7 8 8 7 9 9 7 7 9 10 11 11 11 9 7 7 6 4 3 4 5 6 8 8 8 9 10
3 6 7 9 7 3 4 3 3 4 3 3 5 2 4 5 3 3 6 5 6 7 9 11 12 12 13 14 14 12 12 15 17 17 17 17 17 17 17 15 14 13 13 13 11 10 11 10 9 8 8 8 5 4 4 3 3 3 3 3 4 4 5 5 5 6 5 4 4 5 6 7 7 7 9 9 6 7 9 9 9 9 12 12 8 7 7 5 5 5 6 7 8 8 8 8 9
5 6 7 6 5 4 3 3 3 4 2 1 5 4 7 6 3 6 5 4 6 7 9 11 11 11 13 13 13 12 12 15 16 16 17 16 15 16 17 15 15 13 12 12 11 11 11 9 8 8 7 7 5 4 4 4 3 3 2 2 2 2 3 4 5 6 6 5 5 4 5 6 7 8 8 8 6 6 8 7 6 8 12 11 8 8 7 6 6 7 8 9 9 9 9 8 8
6 5 6 4 6 6 5 4 5 4 2 1 6 6 7 7 5 5 4 4 6 7 8 9 10 10 11 12 11 12 13 14 14 15 16 15 14 15 16 15 15 13 12 12 11 12 12 9 8 8 7 6 5 4 3 4 4 3 3 2 2 1 2 3 4 5 6 6 5 5 6 6 7 7 7 9 6 5 6 5 5 7 10 11 10 9 9 9 8 8 10 10 10 10 10 9 9
4 4 4 4 5 6 9 4 5 6 3 1 7 6 4 7 6 4 3 4 6 7 8 9 9 9 10 11 11 11 12 13 14 15 15 15 13 14 15 14 14 12 11 12 12 12 11 10 9 8 8 7 5 5 4 4 4 3 3 3 2 2 1 2 3 5 5 5 5 6 8 6 6 7 6 7 5 5 6 6 5 6 8 10 10 10 10 10 9 9 9 10 11 11 10 10 9
4 4 4 4 4 6 10 5 3 4 4 1 6 7 3 6 5 4 2 4 6 6 7 9 9 10 10 10 10 10 11 12 15 16 14 14 13 13 14 14 14 12 10 11 12 11 11 11 10 7 8 7 5 5 5 5 5 4 3 3 2 2 1 2 2 3 4 5 5 4 6 6 5 6 5 5 5 5 6 6 6 5 7 9 11 11 10 9 8 8 9 9 10 11 11 10 8
5 4 2 3 4 4 8 7 6 4 3 4 5 7 2 5 5 4 3 4 6 6 6 8 8 9 9 9 9 9 10 12 13 15 15 14 13 12 13 13 13 11 9 10 12 12 11 11 11 8 8 7 6 6 6 5 5 4 3 3 3 2 2 2 2 3 3 3 4 5 5 5 5 6 5 5 5 5 5 6 7 5 5 8 11 11 10 8 8 8 9 9 9 9 10 10 7
5 4 1 2 3 2 5 7 6 2 2 3 2 7 3 3 3 3 4 5 6 6 6 7 7 8 8 8 9 10 10 11 11 14 16 15 12 12 11 11 12 10 9 10 11 12 11 11 10 9 8 8 7 7 7 6 5 4 3 3 3 3 3 3 3 3 3 3 4 5 5 5 5 5 5 5 5 5 5 6 7 6 6 8 11 11 9 9 10 10 9 9 9 8 9 8 6
3 4 3 3 3 4 2 5 5 3 2 2 3 6 2 1 3 3 4 5 6 7 5 5 6 7 8 8 9 11 11 10 10 13 16 15 12 12 11 10 11 10 10 11 11 11 10 10 10 10 9 9 8 8 7 6 4 3 3 4 4 4 3 3 3 3 4 4 4 4 4 4 4 4 4 4 4 5 5 5 6 7 7 8 9 9 10 11 14 13 10 9 9 9 8 8 7
2 3 3 4 4 4 1 5 5 4 3 4 2 4 2 0 2 4 4 4 7 7 5 4 5 6 8 8 9 10 11 9 10 13 16 16 13 12 11 11 11 11 12 13 12 12 11 11 11 10 11 10 10 9 8 6 4 4 4 4 4 4 3 4 3 4 4 4 4 3 2 2 2 2 2 2 3 3 4 5 5 6 7 7 7 8 9 11 13 13 12 11 10 10 10 9 8
4 4 5 4 4 4 4 4 4 4 5 3 1 4 4 1 1 3 5 5 7 8 7 7 7 7 7 8 10 10 10 8 10 13 14 16 15 13 12 11 11 12 13 14 14 13 13 12 12 12 12 12 11 10 8 6 5 5 5 5 5 4 4 4 4 4 4 4 4 3 2 2 2 2 2 2 2 2 3 4 5 5 6 6 6 6 7 8 10 10 11 12 12 11 10 9 10
5 6 6 5 6 4 5 4 3 2 5 2 2 6 6 3 1 3 6 6 8 9 9 9 9 9 8 9 10 10 10 8 10 12 13 16 16 14 13 12 13 14 14 15 15 15 15 14 13 13 14 14 12 10 8 7 5 5 5 5 5 5 4 4 4 4 4 4 4 4 3 3 3 3 3 2 2 2 2 3 3 4 5 5 5 4 5 6 7 8 9 10 11 11 10 10 11
5 6 6 5 4 3 4 5 4 1 4 3 0 6 7 4 4 3 6 7 7 7 8 8 8 9 9 9 10 10 10 10 10 11 13 16 17 16 15 14 15 16 15 16 15 15 16 15 14 14 14 14 13 11 9 7 7 5 5 5 5 4 4 4 5 5 5 5 5 4 4 3 3 4 4 4 3 3 3 2 2 3 4 5 5 5 5 4 4 6 9 10 9 9 9 9 11
6 5 6 4 2 3 3 6 5 2 2 4 4 6 7 6 6 6 6 6 4 4 5 6 6 8 9 9 9 9 11 12 12 11 12 14 17 18 17 17 17 17 16 17 17 17 17 17 16 15 16 14 13 12 9 8 9 7 6 6 6 5 5 5 6 6 6 6 5 5 5 5 5 5 5 5 5 4 4 3 2 3 4 4 5 6 6 4 3 3 5 7 7 7 8 7 8
5 5 7 4 2 4 4 2 3 3 3 3 6 7 7 6 8 7 6 5 5 5 6 6 6 7 7 8 9 9 10 11 12 12 12 14 17 20 20 19 19 19 18 19 20 19 19 19 17 17 16 14 13 13 11 10 11 10 8 8 7 6 6 6 5 6 5 5 5 6 6 6 6 6 5 5 5 5 5 4 4 4 5 4 4 5 6 6 3 3 3 4 4 6 7 7 6
5 7 9 7 3 4 4 1 3 5 5 2 4 7 4 3 5 5 5 6 7 7 6 6 6 6 7 8 9 9 10 10 11 12 13 14 17 19 20 20 20 21 20 20 21 20 20 20 18 17 17 15 14 14 13 12 12 12 12 10 9 8 7 6 5 5 5 5 6 6 6 6 6 6 6 6 6 5 5 5 5 5 5 5 5 5 6 6 4 3 3 3 2 2 5 7 8
4 6 8 8 6 5 5 4 4 6 3 2 2 7 3 3 5 4 4 6 7 7 6 4 3 4 6 6 7 7 8 9 10 11 12 13 15 17 19 21 22 22 21 19 19 20 21 20 19 19 17 16 15 15 15 14 13 13 13 11 10 9 7 6 6 6 6 6 6 6 6 6 6 6 6 6 6 6 6 5 5 5 5 5 5 6 6 5 4 4 3 3 3 3 3 1 4
1 3 6 8 7 6 6 6 5 5 3 1 5 5 5 5 4 5 4 5 7 8 6 5 3 2 3 4 4 5 6 7 8 10 12 13 14 17 19 21 22 21 20 19 19 21 22 20 20 20 19 18 19 18 17 15 13 14 13 11 10 8 7 7 7 7 7 7 7 7 6 7 6 6 6 6 6 6 6 6 6 6 6 6 6 7 7 6 6 5 5 4 3 3 4 5 4
1 3 3 5 5 6 5 6 6 3 3 5 6 4 5 6 3 5 5 7 8 7 4 2 2 2 0 2 4 5 6 7 8 9 10 12 15 17 19 19 20 20 20 20 20 22 22 21 21 22 20 20 21 22 20 16 14 14 13 12 10 9 7 8 8 8 7 7 7 7 7 7 7 7 6 7 7 8 7 7 7 6 6 6 6 7 7 7 7 6 6 6 5 5 4 4 3
2 3 4 4 5 4 5 6 6 3 5 8 4 4 5 6 4 5 5 5 4 3 1 1 2 3 3 3 4 6 6 6 8 10 10 11 13 16 17 17 19 20 20 20 19 21 22 21 22 23 22 21 21 23 22 17 16 15 14 13 12 11 9 8 8 8 8 8 8 7 7 7 7 7 8 9 9 9 9 8 8 8 7 7 7 8 8 8 8 7 7 6 7 7 6 5 4
3 6 6 6 6 5 5 5 4 4 7 5 3 4 5 6 4 3 1 1 2 3 2 3 4 5 6 6 6 6 6 6 7 8 9 10 11 12 14 16 18 19 19 19 19 21 22 21 23 22 21 20 20 23 23 19 18 16 15 14 13 13 11 10 9 9 9 9 9 8 7 7 8 8 9 10 10 9 9 9 9 9 8 8 8 7 7 7 8 7 7 7 7 6 6 6 6
5 6 6 6 5 4 5 5 4 6 7 2 5 4 5 7 3 2 3 3 3 3 3 5 7 7 7 7 7 7 6 7 6 6 7 8 9 10 13 15 17 18 18 19 19 20 21 21 22 21 20 21 20 22 24 21 19 18 16 15 14 14 13 12 10 10 10 9 9 9 8 8 8 9 10 10 10 9 9 9 10 9 9 8 8 8 7 8 8 7 7 7 7 6 6 5 5
6 7 6 6 6 5 6 6 5 6 3 4 5 3 5 7 1 5 4 3 3 2 3 5 7 8 8 7 7 6 6 7 6 4 3 5 7 10 12 14 16 17 18 20 18 19 20 20 21 22 23 23 21 22 24 22 20 19 17 15 14 14 14 13 11 10 10 9 9 9 9 9 9 9 10 10 10 10 9 9 9 9 9 9 8 8 8 8 8 8 8 8 8 7 6 6 6
8 7 6 7 6 6 7 6 6 6 2 5 4 2 5 6 1 5 4 3 2 1 2 3 5 6 6 6 7 6 6 7 6 4 2 1 4 7 10 12 13 14 16 18 18 19 19 20 23 23 23 23 22 22 23 22 21 19 17 15 14 13 13 13 11 10 10 9 9 10 10 9 9 10 10 11 11 10 9 9 9 9 9 9 9 9 8 8 8 8 8 8 8 7 7 7 6
7 6 6 7 6 6 7 6 6 7 2 5 5 3 5 5 2 4 4 4 2 1 2 1 2 3 4 5 6 7 7 7 6 6 5 3 3 5 7 9 9 10 13 15 16 18 18 19 23 22 21 21 22 22 23 22 21 19 17 15 14 12 12 13 12 11 12 12 11 11 10 9 9 10 11 11 12 10 9 9 9 10 10 9 9 8 8 8 7 7 7 7 7 6 6 6 5
5 4 7 7 5 6 5 3 3 5 4 2 4 4 3 0 4 5 4 5 5 4 3 3 3 4 4 5 6 7 7 7 7 7 6 6 5 6 6 6 7 9 11 13 14 15 16 19 19 18 18 19 20 21 21 21 20 19 18 18 16 15 13 13 13 13 13 13 12 12 11 11 10 10 11 12 13 11 10 10 10 10 10 9 9 8 8 7 7 7 7 7 6 6 5 5 5
2 5 7 3 3 6 6 2 2 1 7 7 5 6 4 3 4 6 7 7 7 6 5 5 5 5 5 6 7 7 7 8 8 8 7 7 7 7 7 5 5 7 9 11 13 14 16 18 16 15 16 15 16 19 18 18 19 17 17 20 21 20 18 16 14 14 14 15 14 13 12 12 11 12 13 14 14 13 12 12 11 11 10 9 9 9 8 8 8 7 7 6 6 6 5 5 4
4 5 4 1 2 5 6 5 3 4 8 7 6 9 8 5 4 7 9 9 8 8 7 6 5 5 6 7 7 7 8 9 9 9 9 9 9 9 9 7 5 4 5 7 9 10 13 15 14 13 15 14 14 16 16 17 18 18 20 23 24 22 21 19 16 16 16 16 16 15 13 13 13 13 14 15 15 14 13 13 12 11 11 10 10 9 9 9 8 8 8 7 6 6 5 5 4
7 4 1 2 5 6 5 6 7 8 8 7 8 10 9 9 5 8 11 11 11 9 8 8 6 6 6 6 7 8 8 8 9 10 9 9 10 12 11 10 10 8 6 4 4 4 7 10 9 10 12 13 12 13 14 15 17 21 23 23 23 23 22 20 18 17 17 17 18 17 16 15 15 15 15 16 16 16 15 14 13 12 12 11 10 10 9 9 8 8 8 7 7 6 5 5 4
5 4 4 5 5 6 6 6 6 8 8 8 9 9 8 7 5 9 12 12 13 11 9 8 7 6 5 5 6 7 8 8 8 9 9 10 11 13 13 12 12 12 10 8 6 3 1 4 6 7 8 10 11 12 13 14 15 19 20 18 21 24 22 18 17 17 18 18 19 19 18 17 17 16 16 17 17 17 16 16 14 13 13 12 11 10 9 9 8 8 8 7 7 7 6 5 4
5 6 7 7 5 4 6 7 7 7 9 8 8 9 7 3 1 7 11 11 12 11 10 8 7 6 5 6 6 6 7 7 7 9 9 10 12 14 14 13 14 14 13 12 10 8 5 1 3 5 6 7 10 11 12 13 14 16 17 18 21 23 21 18 16 16 17 18 18 19 19 19 18 18 18 18 18 17 17 16 16 15 14 13 12 11 10 9 8 8 7 7 7 7 6 5 4
5 6 7 8 7 6 7 9 8 7 9 8 8 10 6 2 2 3 7 10 10 10 10 8 7 7 6 6 6 6 6 7 8 9 9 10 12 14 15 15 16 16 15 14 14 13 10 5 3 2 3 5 7 9 10 11 12 14 16 18 20 21 21 19 17 17 17 17 16 17 18 19 19 20 20 20 19 18 18 17 16 16 15 14 13 12 11 9 8 8 8 7 7 6 5 5 4
Wind_Direction
216 232 231 249 256 248 231 230 242 195 235 256 244 248 147 139 345 271 218 210 255 110 175 310 172 165 152 200 171 119 28 38 51 224 135 99 137 136 137 139 139 139 141 141 142 147 147 149 150 152 153 153 151 148 148 147 146 144 145 146 149 151 154 157 157 157 155 154 152 149 143 140 138 136 137 139 141 140 141 143 143 142 151 156 157 154 147 145 141 137 138 138 132 131 131 129 130
225 230 226 240 227 233 217 213 258 215 225 250 234 235 104 137 227 247 218 263 5 72 156 170 163 158 98 33 166 159 64 50 54 74 93 120 135 135 140 139 139 139 140 140 141 146 147 150 152 154 156 155 154 150 151 150 146 145 145 146 149 151 153 156 156 154 152 150 148 147 143 142 142 142 143 143 143 143 145 144 143 148 157 161 163 159 151 147 144 144 145 142 136 135 134 133 133
227 232 214 212 210 232 239 207 253 249 237 255 226 136 105 208 224 288 29 43 73 95 142 145 153 150 175 180 175 183 112 76 81 89 111 138 138 140 143 137 137 137 139 138 137 144 148 152 154 156 159 157 155 153 154 152 148 146 146 146 148 151 154 156 156 153 150 148 146 146 145 146 147 147 146 145 145 145 146 144 145 150 154 156 157 156 152 150 150 149 148 145 140 138 136 136 135
222 235 219 214 206 222 230 220 248 262 250 259 246 106 118 245 356 35 96 106 102 130 143 148 149 133 271 167 140 119 102 102 98 100 129 142 139 143 143 138 134 133 136 137 137 142 147 152 155 159 161 160 156 155 156 154 151 148 148 147 148 151 154 156 156 153 150 149 148 148 149 151 149 148 146 145 145 145 146 145 148 149 151 151 149 150 149 151 152 152 152 149 143 142 141 138 136
229 226 227 241 237 222 238 241 247 253 258 274 279 87 84 60 58 89 116 120 133 164 167 179 145 131 310 49 61 112 105 106 108 117 131 127 132 142 143 140 134 132 134 134 138 142 147 153 156 161 162 162 160 157 158 156 154 152 150 148 150 152 154 155 155 154 153 153 153 153 154 155 152 151 149 149 149 149 151 150 153 154 153 151 151 151 150 153 155 154 153 150 146 144 142 139 139
215 199 214 244 267 312 250 241 237 239 254 305 296 66 77 79 87 109 119 131 157 175 184 209 167 155 149 55 35 46 76 111 129 131 131 131 138 142 142 142 135 129 129 131 136 141 150 155 158 160 160 163 163 161 160 159 157 156 154 151 152 153 155 156 157 157 158 158 158 158 159 159 158 156 156 156 156 156 157 156 159 161 156 153 155 151 152 155 155 156 152 150 148 144 141 141 144
209 194 195 224 228 244 245 243 246 244 129 311 294 58 92 96 89 123 144 159 176 172 184 205 176 157 124 107 77 56 47 113 131 135 133 138 141 142 143 143 134 126 127 128 130 138 150 155 160 160 159 162 165 165 162 161 161 159 157 155 155 156 157 158 161 162 161 162 161 162 162 164 164 163 164 164 164 162 158 159 163 167 161 156 155 153 157 157 156 158 154 152 151 148 146 145 143
217 219 195 227 218 206 244 251 250 266 101 143 281 69 89 81 42 281 181 184 185 166 170 160 190 192 106 158 120 83 112 110 122 130 131 137 141 144 144 142 133 127 127 126 129 137 148 154 160 164 161 161 164 167 164 164 164 163 161 158 158 160 161 162 164 166 165 164 164 165 165 167 169 170 171 169 169 164 160 162 167 167 162 156 155 158 160 158 158 160 159 156 156 157 155 154 145
210 227 212 235 238 221 241 248 237 260 243 216 219 179 107 356 308 280 234 206 169 179 165 146 207 219 123 139 106 110 126 115 120 126 132 138 140 145 143 141 134 130 128 126 129 134 146 154 158 165 164 162 163 166 167 168 168 168 165 162 162 163 165 166 168 169 167 166 165 165 166 169 170 172 173 172 174 168 162 164 166 166 164 160 158 160 159 161 163 162 163 159 160 164 161 162 153
204 224 238 238 247 239 236 238 220 226 238 232 218 212 239 265 276 270 253 223 176 193 149 143 217 163 134 133 114 121 124 125 128 128 138 141 139 142 140 138 133 132 131 128 130 132 144 154 155 160 166 167 166 168 168 170 172 171 169 166 165 165 167 169 170 170 167 168 168 166 166 169 171 173 174 176 181 173 164 165 165 165 166 163 159 159 159 167 171 166 163 160 164 165 158 156 151
212 205 244 246 238 242 243 235 210 208 223 239 232 222 264 262 265 262 254 239 209 202 156 183 188 132 135 129 115 119 127 135 135 132 142 144 139 137 135 134 132 132 131 128 131 133 140 153 155 156 164 170 172 173 170 171 172 172 173 171 169 169 170 171 172 170 167 168 169 169 168 170 171 172 175 179 184 179 167 165 168 167 167 165 161 160 161 167 169 167 165 164 165 160 155 152 151
232 194 218 241 241 249 265 271 245 247 232 235 213 117 26 278 250 254 249 239 219 210 192 198 163 146 149 126 123 134 141 142 133 135 144 144 139 138 135 130 130 130 129 128 130 132 137 147 154 157 162 168 176 180 176 171 170 173 174 174 175 174 175 174 174 174 171 170 169 169 170 172 170 167 173 177 181 181 169 166 172 169 168 167 164 163 163 165 167 169 169 170 163 156 156 155 158
242 221 225 240 263 269 272 279 254 260 243 219 156 83 23 289 255 251 253 247 224 217 201 176 158 181 158 117 138 146 147 141 135 142 143 141 140 140 134 128 131 129 131 132 130 133 137 141 149 157 160 165 177 184 184 175 172 176 174 177 181 179 181 180 177 177 177 177 172 170 171 173 173 170 173 176 180 179 167 166 172 169 166 167 165 166 167 169 172 174 174 173 163 160 162 156 155
244 246 251 250 262 264 261 262 239 250 227 130 88 54 342 295 278 261 249 244 228 220 169 145 174 189 148 125 151 155 151 144 144 147 143 141 139 140 136 133 134 131 137 138 131 132 135 137 142 150 155 161 169 179 187 182 181 181 176 181 186 183 183 185 182 181 182 183 179 173 171 173 177 177 176 178 183 179 167 166 173 171 168 168 167 169 172 174 177 177 177 174 169 174 181 167 154
247 238 255 258 247 243 232 248 265 257 198 109 74 10 324 302 286 266 240 238 223 158 120 147 199 204 165 175 175 158 151 146 147 145 142 140 138 140 137 135 137 136 141 141 134 134 137 137 138 141 147 156 159 166 175 178 187 186 182 187 190 187 185 187 187 186 183 184 183 175 173 176 179 183 181 178 182 180 168 166 174 174 170 168 167 168 171 176 179 181 184 183 183 189 194 190 180
244 245 239 250 246 235 202 218 243 244 147 102 60 2 332 328 229 267 248 252 219 139 181 176 190 265 184 181 156 148 147 143 144 141 139 138 137 136 135 137 138 137 140 143 141 140 143 142 142 141 143 154 154 154 158 167 184 185 185 190 190 188 188 190 189 187 184 183 182 176 176 176 174 181 183 176 176 175 169 167 171 173 172 170 168 168 172 178 182 186 190 195 198 199 199 201 200
221 240 238 241 235 233 205 207 214 268 77 86 22 6 335 335 200 263 257 248 224 168 190 163 150 328 66 131 133 142 145 143 141 141 142 140 138 138 138 138 137 140 142 145 146 145 146 146 148 146 145 148 147 149 155 163 171 174 178 185 189 190 191 194 191 185 182 179 177 178 176 171 175 181 182 177 173 171 170 169 170 172 172 174 175 176 183 187 192 195 195 201 206 206 206 207 209
214 226 233 239 231 230 239 237 288 337 337 350 347 2 340 331 268 219 211 213 204 176 174 147 139 106 89 122 133 141 146 146 146 148 149 145 145 145 143 143 144 146 149 149 149 148 144 142 145 145 146 144 141 144 150 158 159 164 164 167 181 190 192 193 191 185 182 184 181 177 170 175 193 188 181 177 173 173 175 174 172 175 173 174 180 183 190 192 198 201 198 203 209 212 207 203 208
228 236 235 242 242 248 28 319 318 315 308 323 332 346 338 327 318 209 215 196 183 179 171 165 154 129 124 133 138 144 148 151 154 156 153 153 155 149 145 149 150 150 154 155 152 152 146 145 147 147 150 147 145 144 148 154 155 164 161 158 167 179 187 188 189 186 187 197 190 177 174 189 201 194 187 177 173 176 179 182 175 178 179 177 182 189 194 193 201 204 197 201 208 211 201 196 198
225 238 239 240 261 299 309 280 285 296 308 314 321 330 332 341 343 249 230 193 184 191 177 176 170 149 144 143 144 149 152 155 157 159 156 159 160 152 151 153 155 157 159 157 153 154 154 154 154 155 157 156 155 152 152 156 159 170 165 160 160 166 177 181 186 189 189 198 189 182 189 197 196 194 189 176 173 176 177 183 178 180 187 186 184 189 195 196 203 204 200 203 204 208 208 208 203
206 220 249 269 335 284 266 256 278 295 307 308 312 317 331 20 296 259 237 197 195 203 183 182 178 156 149 149 151 154 156 158 159 161 159 160 160 159 157 156 160 161 159 159 156 158 161 161 158 159 159 160 163 164 166 160 160 168 163 165 164 163 174 176 182 190 188 190 184 184 193 193 190 185 180 176 178 178 174 176 179 184 191 195 191 189 193 196 198 193 193 200 203 211 217 214 209
231 224 254 287 292 273 275 288 296 304 301 294 301 313 338 333 258 245 235 212 196 196 166 174 179 157 152 153 154 158 160 161 161 163 163 161 161 161 158 155 159 162 164 165 164 165 166 166 161 159 160 163 167 169 174 167 164 166 163 174 172 163 172 179 182 192 190 186 184 184 188 190 186 179 178 187 188 182 179 178 185 188 192 200 200 202 202 198 198 191 187 194 204 217 218 211 211
245 230 242 266 269 275 284 290 294 299 290 286 303 323 326 294 256 226 234 226 44 63 124 127 155 151 151 152 155 161 162 163 164 165 164 162 162 160 157 158 161 165 173 171 168 168 167 168 164 161 164 166 170 173 171 172 176 174 167 175 176 165 169 181 188 195 195 190 189 186 187 191 186 180 180 187 192 190 188 188 192 193 197 203 206 214 214 206 208 203 197 200 206 216 218 215 215
245 251 248 260 268 273 274 282 286 284 283 287 298 301 290 280 284 210 223 168 54 86 139 128 139 147 151 152 158 163 162 164 164 165 164 163 162 157 157 161 165 170 174 171 169 170 168 168 165 164 166 166 171 176 173 174 178 179 174 177 179 171 170 181 187 193 194 193 195 194 193 193 188 188 186 186 192 193 194 196 197 197 201 205 207 215 218 213 217 212 201 202 207 213 217 219 220
233 256 264 263 264 265 270 281 281 279 280 284 279 271 276 284 311 239 208 136 84 122 147 141 141 149 154 156 161 163 163 164 164 165 165 163 160 158 162 166 170 177 174 169 171 171 168 167 167 167 164 164 166 168 174 176 176 180 183 185 184 178 178 181 181 182 186 190 195 200 201 198 197 197 194 195 192 188 192 201 205 204 206 207 205 211 216 213 216 206 192 193 205 214 216 220 223
212 248 262 262 264 270 286 289 276 272 273 281 259 245 229 182 218 202 168 123 109 126 145 148 149 155 159 160 163 165 165 166 166 166 163 160 163 166 173 175 178 182 176 170 170 167 165 165 167 166 162 163 163 162 167 172 180 190 191 192 184 177 179 174 172 177 179 181 184 195 200 203 206 199 198 202 191 177 188 205 212 209 208 208 204 204 206 209 207 200 196 198 205 211 215 220 224
199 256 271 269 272 284 293 282 261 249 241 246 237 211 128 169 218 179 126 132 144 145 147 154 158 159 162 162 164 168 168 170 169 166 165 166 172 178 180 182 182 180 173 170 168 162 162 165 163 162 163 163 164 162 161 166 179 197 198 196 182 169 172 168 173 182 177 177 178 183 192 205 209 194 202 206 186 181 198 210 217 215 212 207 203 199 196 200 193 185 191 196 202 208 213 218 223
278 274 277 260 254 256 254 236 220 222 186 210 232 184 139 185 216 77 104 151 168 160 157 163 166 160 162 162 163 171 173 174 172 172 176 176 179 183 183 184 181 176 171 168 164 160 162 165 160 159 164 166 170 165 159 167 176 185 189 199 190 168 172 171 178 186 175 173 175 175 182 196 199 191 209 212 191 205 217 221 221 223 220 210 200 195 193 194 185 179 180 180 188 201 209 216 222
268 273 276 249 203 176 171 150 165 197 142 191 244 200 176 179 110 73 103 160 178 175 167 166 169 161 161 162 165 176 179 177 177 180 183 184 184 181 181 180 176 172 167 165 161 160 163 164 160 160 167 170 173 172 166 170 168 167 157 183 206 188 195 178 173 187 185 178 167 169 183 192 193 190 216 225 209 212 222 226 223 226 223 212 201 192 188 190 184 180 181 181 182 192 203 209 220
256 245 264 252 194 160 108 126 157 151 89 283 246 221 178 148 98 84 116 168 182 183 174 170 169 162 163 165 172 179 180 179 180 183 183 184 183 178 178 176 175 170 161 164 164 162 166 165 163 164 170 172 176 178 174 169 159 154 148 160 177 179 216 190 165 171 181 186 168 167 179 185 193 189 212 235 222 201 219 228 215 223 222 209 201 193 189 193 189 182 183 185 185 191 200 204 214
239 224 234 238 207 134 96 107 164 146 100 256 243 243 174 126 103 97 120 179 193 188 177 175 171 167 169 169 177 180 178 182 181 181 180 181 179 175 177 173 174 171 161 166 166 168 173 173 171 171 177 176 177 180 173 163 148 148 152 145 141 139 187 183 160 155 162 178 171 184 188 179 198 197 204 238 233 201 221 233 211 216 218 205 201 197 196 199 196 191 190 189 186 190 199 206 215
222 226 199 208 215 122 103 82 67 115 110 188 242 250 182 118 100 102 130 193 203 200 182 181 179 174 176 175 182 183 177 180 179 176 175 177 177 174 177 176 176 173 164 164 166 171 175 180 180 177 181 175 173 178 166 154 143 142 139 122 120 122 147 146 142 150 150 156 152 175 185 172 193 203 200 227 230 199 208 231 223 213 208 201 204 202 200 203 202 202 202 201 196 195 200 208 220
204 237 193 189 218 150 129 105 71 79 126 174 232 260 235 108 101 109 153 201 205 209 188 183 186 179 184 186 186 186 177 175 177 176 174 177 179 175 177 180 180 176 168 167 171 176 175 181 184 178 179 172 170 170 157 153 148 144 133 122 124 117 129 127 125 141 137 140 137 137 149 154 176 194 198 204 215 211 207 225 226 212 206 205 208 206 201 204 206 208 210 209 207 206 208 210 216
187 226 187 178 235 210 151 128 96 65 212 171 198 259 281 96 129 136 166 201 209 214 197 187 192 186 192 195 193 191 184 178 179 177 176 180 180 176 176 177 178 175 173 174 177 180 178 179 181 175 174 168 164 161 155 155 149 146 140 131 132 125 126 118 117 128 120 120 121 123 133 144 163 175 185 188 202 219 215 223 218 201 203 208 210 207 202 208 213 213 215 216 216 215 212 209 206
194 203 198 177 200 238 185 120 79 31 240 188 197 239 260 95 195 171 170 199 213 217 207 198 200 198 200 202 203 200 193 184 179 176 176 179 178 175 176 175 176 177 179 183 183 183 181 177 174 172 170 166 163 161 161 160 156 157 151 144 140 134 130 120 120 119 110 108 105 109 123 138 152 155 160 165 178 196 200 217 216 198 199 206 208 204 202 212 218 217 216 222 227 231 229 223 220
279 229 241 213 190 212 146 83 55 17 271 219 218 254 271 345 192 167 174 197 217 217 208 214 214 211 210 208 211 208 203 188 173 174 174 177 179 175 177 176 176 181 187 191 190 186 183 178 173 172 173 169 166 168 171 174 175 168 160 156 149 138 128 116 110 106 98 94 98 108 118 134 150 145 157 152 158 181 186 194 195 189 192 199 205 205 204 211 217 219 220 222 225 234 237 231 225
280 247 240 235 227 206 128 96 70 13 293 220 159 287 265 274 25 155 175 193 216 217 210 216 220 221 219 216 216 213 210 188 163 168 171 178 183 176 175 178 176 180 190 193 191 188 186 183 177 174 176 174 173 175 177 179 179 170 165 161 149 141 134 125 116 98 93 94 98 106 105 109 123 139 169 169 179 194 191 190 186 182 185 189 200 211 210 206 210 216 218 217 218 223 226 223 218
241 238 231 223 231 209 114 99 97 38 292 218 147 272 250 230 249 162 171 199 214 215 214 218 221 226 228 226 224 219 214 191 165 167 172 179 185 180 177 180 182 184 189 191 189 187 186 185 182 179 178 178 179 180 177 175 174 170 165 156 147 140 129 121 116 104 100 100 96 91 86 87 98 111 119 128 156 170 187 200 189 190 188 180 181 191 199 199 205 210 208 209 213 218 221 218 209
226 231 235 226 219 198 126 126 135 97 285 261 191 277 263 242 242 201 189 206 207 208 220 225 225 228 229 231 230 225 218 203 183 177 176 181 186 185 183 185 189 190 188 187 187 186 184 185 186 183 181 180 181 183 179 171 167 162 155 145 137 132 117 99 99 105 108 102 95 85 80 81 92 99 100 103 113 123 149 173 175 185 175 157 149 149 159 169 194 205 206 208 207 210 216 209 199
222 223 230 225 176 219 202 145 145 144 287 296 305 280 268 244 228 216 201 206 194 191 223 235 241 241 238 241 239 231 225 214 203 191 181 183 186 188 190 190 189 188 187 185 186 185 183 187 188 184 182 182 182 184 179 169 168 162 152 143 134 127 120 112 108 111 111 105 96 85 84 89 93 95 93 96 104 112 123 130 136 143 136 139 143 139 133 126 147 182 194 204 204 205 206 193 189
206 225 243 242 167 239 266 122 148 194 188 269 285 266 255 233 225 215 184 193 208 201 214 222 231 242 247 254 252 243 236 228 219 205 191 187 190 191 193 191 186 187 189 187 186 185 184 187 188 183 182 183 183 183 178 172 172 164 154 153 146 135 130 133 134 127 122 115 103 95 96 97 93 92 90 90 99 111 119 116 108 102 99 105 119 119 105 102 112 101 115 164 200 217 206 179 173
200 209 233 251 240 232 255 237 234 240 202 172 295 275 250 184 212 210 169 189 202 193 201 209 209 218 230 242 246 247 244 240 236 223 207 197 194 194 193 191 188 190 191 188 186 185 184 185 185 181 180 183 185 186 183 177 173 166 162 164 160 154 151 151 148 138 134 122 112 111 107 103 98 94 91 90 95 106 116 119 115 105 95 89 86 87 85 90 102 94 95 116 129 247 224 184 166
221 184 206 227 235 224 232 231 235 259 248 124 280 278 270 192 199 170 160 197 193 176 174 174 188 213 227 237 240 246 247 246 245 238 227 212 201 196 195 193 192 193 191 186 184 183 183 184 183 181 180 181 184 188 188 182 179 174 172 174 167 162 157 149 142 135 132 123 117 120 117 111 107 101 96 93 96 103 109 115 117 115 110 105 95 90 91 95 95 89 80 77 72 25 346 110 128
251 120 191 210 215 213 222 232 239 270 303 204 216 257 277 256 221 141 161 222 209 188 166 147 157 193 237 263 264 266 265 259 254 244 235 225 213 206 200 195 194 193 186 181 182 182 183 183 183 182 181 183 187 192 191 187 186 181 179 180 170 164 154 144 144 137 132 128 124 125 124 120 113 106 102 100 103 106 108 109 111 111 111 110 108 103 101 101 95 89 81 69 67 55 29 29 45
50 80 206 209 208 213 218 241 252 260 289 257 213 211 260 257 214 153 186 224 212 190 163 128 118 112 136 295 297 294 285 275 266 255 244 233 224 215 207 198 193 190 184 182 183 182 180 182 184 184 185 187 190 194 194 191 191 186 183 182 172 166 156 147 151 145 139 137 131 130 129 126 118 110 107 108 109 109 108 108 106 105 103 102 104 104 101 100 98 94 89 83 80 80 68 58 53
92 142 186 184 189 206 221 250 264 233 256 268 211 180 266 269 219 189 194 210 202 165 99 14 32 32 14 357 327 309 298 285 271 262 254 242 232 222 211 199 190 185 183 182 181 180 179 181 185 188 189 189 190 194 195 193 194 191 188 187 177 169 162 159 159 152 151 148 142 141 139 135 128 119 117 117 116 113 110 110 108 105 102 98 98 101 101 102 101 97 95 93 91 90 85 81 82
147 180 190 190 193 204 222 245 270 255 251 253 156 167 264 270 235 200 137 67 13 351 334 346 352 350 357 355 338 329 321 309 287 271 258 242 233 222 210 198 186 180 178 177 179 180 180 181 187 190 190 190 191 194 195 195 196 196 194 190 183 175 169 169 169 164 164 162 154 153 151 147 140 132 130 127 125 121 116 114 112 111 107 103 101 100 102 102 102 102 99 96 94 94 93 91 89
193 208 215 219 215 214 232 223 217 251 254 158 116 155 233 253 239 116 91 68 33 336 324 335 332 337 351 349 340 341 335 323 306 289 266 233 216 203 199 194 186 178 175 176 179 179 180 182 186 186 188 191 193 194 196 196 198 200 199 194 188 181 176 176 181 178 175 171 166 162 159 157 152 147 144 140 137 132 126 122 119 116 113 110 106 103 103 105 105 104 102 99 97 95 96 96 93
215 227 227 236 236 226 240 238 229 246 242 110 117 162 227 250 214 101 107 85 58 359 336 331 329 335 343 345 346 350 348 340 327 314 287 228 202 189 189 190 188 183 179 179 179 178 180 183 184 186 190 194 193 193 196 198 200 202 202 198 192 187 185 184 186 187 185 181 175 170 168 168 166 162 159 155 151 146 138 134 130 125 122 118 114 110 107 108 107 105 104 101 97 95 95 96 95
214 228 230 242 247 242 245 246 248 253 201 108 124 182 241 246 124 90 96 85 63 27 3 340 336 338 341 351 358 6 11 2 354 359 2 216 187 180 183 185 186 185 181 180 179 179 182 182 187 192 194 194 192 193 196 200 203 205 205 203 198 193 191 190 192 193 192 193 186 180 179 179 177 175 171 166 161 156 149 144 138 133 129 125 120 115 112 111 109 107 105 103 98 95 95 93 94
221 236 243 250 253 254 260 261 262 265 227 123 140 188 251 247 120 89 99 108 107 97 81 54 9 2 4 11 15 20 24 19 17 28 40 63 119 146 160 167 172 177 178 178 179 182 183 185 193 198 195 193 192 193 196 201 204 205 207 207 203 199 197 195 198 199 196 197 193 188 187 186 185 182 177 172 168 163 155 149 144 140 137 133 127 122 117 115 112 107 104 102 98 96 96 93 90
220 234 245 253 258 253 263 291 309 302 285 212 187 221 261 142 116 121 133 138 136 128 120 116 84 59 45 36 34 31 30 30 31 37 46 61 90 108 125 146 160 168 171 174 179 183 185 190 197 199 194 192 193 194 197 199 202 204 206 208 207 204 202 200 201 201 199 201 199 195 193 190 187 182 178 175 173 170 163 157 152 149 146 142 138 133 128 123 119 113 107 105 101 97 98 94 89
200 231 244 251 288 266 259 247 102 285 270 259 236 241 234 165 163 156 154 155 148 145 138 120 91 74 65 49 39 37 39 41 42 44 44 50 68 85 98 121 149 165 171 178 184 187 191 196 198 196 194 192 192 195 197 198 201 204 207 212 214 212 210 207 202 198 201 206 206 204 201 194 187 182 178 177 178 176 172 167 163 160 157 153 149 146 142 137 130 124 118 112 109 107 102 95 89
251 244 242 168 246 256 250 255 234 229 257 257 234 239 239 236 209 158 164 170 158 154 144 125 106 86 72 57 46 41 45 48 52 54 49 45 52 65 80 88 96 127 156 173 185 189 195 202 201 194 194 193 191 193 198 199 200 205 212 218 221 220 219 217 211 205 205 209 209 207 205 198 190 184 180 179 180 180 179 176 173 170 167 163 160 156 153 149 142 137 132 126 122 120 113 105 96
262 287 293 222 250 245 227 246 255 250 258 258 243 239 241 252 226 162 177 182 163 157 150 135 117 94 76 64 53 44 45 48 52 56 53 50 50 53 64 76 81 83 87 107 151 185 200 209 208 198 196 197 196 197 201 203 203 210 217 222 223 225 225 223 218 213 208 210 212 209 207 203 195 188 184 182 183 183 183 183 181 179 175 172 170 166 163 159 153 148 143 137 134 133 128 121 109
227 259 245 237 264 269 251 250 258 260 262 263 261 251 245 258 229 180 187 181 166 162 153 137 116 97 81 67 56 45 46 46 49 58 60 59 58 56 56 63 74 76 74 79 85 85 194 225 222 213 206 204 205 205 206 209 211 216 220 222 225 228 228 226 223 220 215 215 215 211 208 206 201 195 190 188 188 188 188 187 187 185 182 179 177 174 173 169 164 160 154 147 142 141 139 134 128
223 235 234 230 236 260 265 256 250 257 264 263 267 263 259 280 230 196 191 173 164 162 151 139 123 106 88 73 62 52 53 50 49 59 64 66 69 69 66 64 67 67 64 67 73 73 63 10 231 216 219 219 217 216 216 218 218 221 225 227 230 232 232 231 229 226 225 222 217 212 210 208 205 201 196 193 193 194 193 193 191 190 188 186 183 181 180 179 174 167 159 152 149 148 147 142 141
286 267 255 250 246 250 258 254 244 244 261 266 268 270 275 25 39 181 165 155 156 155 148 140 129 116 102 84 71 61 59 58 58 62 64 65 68 73 75 73 72 72 68 66 68 68 63 54 80 126 192 222 229 231 232 232 228 226 230 234 236 237 237 237 233 231 231 227 220 215 211 208 205 204 201 198 198 198 197 197 196 195 194 192 189 187 185 185 183 175 165 159 158 157 153 148 148